When you browse on this site, cookies collect data to enhance your experience and personalize the content and advertising you see.
Visit our Privacy Policy to learn more. By continuing to use the site, you agree to this use of cookies and data.
  • In Schweiz
  • Länderverzeichnis
  • Für 7 Tage
  • Wassertemperatur
  • Wetterkarte
  • Widgets
  • user-avatar
    Anmelden

    Stündliche Wetter Chester

    Heute, 7 Dezember, Samstag

    Zeit Temperatur Niederschläge Wind Luftdruck Luftfeuchtigkeit
    00:00 +7°C° 0 mm 5 m/S 754 mmHg 89%
    01:00 +7°C° 0 mm 5 m/S 755 mmHg 89%
    02:00 +7°C° 0 mm 4 m/S 755 mmHg 89%
    03:00 +7°C° 0 mm 4 m/S 756 mmHg 89%
    04:00 +7°C° 0 mm 4 m/S 756 mmHg 90%
    05:00 +6°C° 0 mm 4 m/S 756 mmHg 90%
    06:00 +7°C° 0 mm 3 m/S 757 mmHg 91%
    07:00 +7°C° 0 mm 3 m/S 757 mmHg 91%
    08:00 +7°C° 0 mm 3 m/S 757 mmHg 91%
    09:00 +7°C° 0 mm 3 m/S 757 mmHg 90%
    10:00 +8°C° 0 mm 3 m/S 756 mmHg 86%
    11:00 +9°C° 0 mm 3 m/S 756 mmHg 83%
    12:00 +10°C° 0 mm 4 m/S 756 mmHg 79%
    13:00 +10°C° 0 mm 4 m/S 756 mmHg 81%
    14:00 +10°C° 0 mm 4 m/S 755 mmHg 83%
    15:00 +10°C° 0 mm 4 m/S 754 mmHg 85%
    16:00 +10°C° 0 mm 4 m/S 754 mmHg 86%
    17:00 +9°C° 0 mm 5 m/S 753 mmHg 86%
    18:00 +9°C° 0 mm 6 m/S 753 mmHg 87%
    19:00 +9°C° 0 mm 6 m/S 751 mmHg 85%
    20:00 +9°C° 0 mm 6 m/S 750 mmHg 84%
    21:00 +9°C° 0 mm 6 m/S 749 mmHg 82%
    22:00 +9°C° 0.4 mm 7 m/S 748 mmHg 83%
    23:00 +10°C° 0.4 mm 8 m/S 746 mmHg 84%

    Morgen, 8 Dezember, Sonntag

    Zeit Temperatur Niederschläge Wind Luftdruck Luftfeuchtigkeit
    00:00 +11°C° 0.4 mm 9 m/S 745 mmHg 85%
    01:00 +10°C° 0.1 mm 9 m/S 745 mmHg 82%
    02:00 +10°C° 0.1 mm 9 m/S 744 mmHg 78%
    03:00 +10°C° 0.1 mm 9 m/S 744 mmHg 74%
    04:00 +9°C° 0 mm 8 m/S 745 mmHg 74%
    05:00 +6°C° 0 mm 7 m/S 746 mmHg 75%
    06:00 +5°C° 0 mm 7 m/S 746 mmHg 76%
    07:00 +5°C° 0 mm 7 m/S 746 mmHg 75%
    08:00 +5°C° 0 mm 8 m/S 746 mmHg 74%
    09:00 +5°C° 0 mm 8 m/S 746 mmHg 73%
    10:00 +5°C° 0.1 mm 9 m/S 745 mmHg 71%
    11:00 +6°C° 0.1 mm 9 m/S 745 mmHg 69%
    12:00 +6°C° 0.1 mm 10 m/S 745 mmHg 67%
    13:00 +6°C° 0.1 mm 9 m/S 744 mmHg 67%
    14:00 +5°C° 0.1 mm 9 m/S 744 mmHg 67%
    15:00 +5°C° 0.1 mm 9 m/S 743 mmHg 67%
    16:00 +5°C° 0 mm 8 m/S 742 mmHg 69%
    17:00 +4°C° 0 mm 8 m/S 741 mmHg 71%
    18:00 +4°C° 0 mm 8 m/S 740 mmHg 72%
    19:00 +4°C° 0.6 mm 8 m/S 739 mmHg 76%
    20:00 +5°C° 0.6 mm 9 m/S 738 mmHg 79%
    21:00 +5°C° 0.6 mm 10 m/S 737 mmHg 83%
    22:00 +5°C° 0.4 mm 10 m/S 738 mmHg 80%
    23:00 +5°C° 0.4 mm 9 m/S 739 mmHg 77%

    übermorgen, 9 Dezember, Montag

    Zeit Temperatur Niederschläge Wind Luftdruck Luftfeuchtigkeit
    00:00 +5°C° 0.4 mm 9 m/S 739 mmHg 75%
    01:00 +5°C° 0.3 mm 10 m/S 741 mmHg 74%
    02:00 +6°C° 0.3 mm 11 m/S 743 mmHg 74%
    03:00 +5°C° 0.3 mm 12 m/S 744 mmHg 73%
    04:00 +4°C° 0 mm 12 m/S 746 mmHg 70%
    05:00 +4°C° 0 mm 12 m/S 748 mmHg 67%
    06:00 +4°C° 0 mm 12 m/S 749 mmHg 63%
    07:00 +4°C° 0 mm 12 m/S 751 mmHg 63%
    08:00 +4°C° 0 mm 11 m/S 752 mmHg 62%
    09:00 +4°C° 0 mm 11 m/S 754 mmHg 62%
    10:00 +5°C° 0 mm 10 m/S 756 mmHg 60%
    11:00 +5°C° 0 mm 10 m/S 757 mmHg 59%
    12:00 +5°C° 0 mm 9 m/S 759 mmHg 57%
    13:00 +5°C° 0 mm 8 m/S 760 mmHg 59%
    14:00 +4°C° 0 mm 7 m/S 761 mmHg 60%
    15:00 +5°C° 0 mm 5 m/S 762 mmHg 62%
    16:00 +3°C° 0 mm 5 m/S 763 mmHg 65%
    17:00 +4°C° 0 mm 4 m/S 763 mmHg 68%
    18:00 +3°C° 0 mm 3 m/S 764 mmHg 72%
    19:00 +4°C° 0 mm 2 m/S 764 mmHg 74%
    20:00 +4°C° 0 mm 2 m/S 765 mmHg 76%
    21:00 +3°C° 0 mm 2 m/S 765 mmHg 78%
    22:00 +3°C° 0 mm 2 m/S 765 mmHg 80%
    23:00 +2°C° 0 mm 3 m/S 765 mmHg 81%

    10 Dezember, Dienstag

    Zeit Temperatur Niederschläge Wind Luftdruck Luftfeuchtigkeit
    00:00 +2°C° 0 mm 3 m/S 764 mmHg 83%
    01:00 +1°C° 0 mm 4 m/S 764 mmHg 83%
    02:00 +3°C° 0 mm 4 m/S 763 mmHg 83%
    03:00 +2°C° 0 mm 5 m/S 762 mmHg 84%
    04:00 +3°C° 0 mm 6 m/S 760 mmHg 84%
    05:00 +3°C° 0 mm 6 m/S 759 mmHg 84%
    06:00 +4°C° 0 mm 7 m/S 758 mmHg 85%
    07:00 +5°C° 0.5 mm 8 m/S 756 mmHg 85%
    08:00 +5°C° 0.5 mm 9 m/S 755 mmHg 85%
    09:00 +6°C° 0.5 mm 10 m/S 753 mmHg 86%
    10:00 +7°C° 0.6 mm 10 m/S 752 mmHg 86%
    11:00 +8°C° 0.6 mm 10 m/S 750 mmHg 86%
    12:00 +9°C° 0.6 mm 10 m/S 748 mmHg 86%
    13:00 +10°C° 0.2 mm 9 m/S 747 mmHg 85%
    14:00 +11°C° 0.2 mm 9 m/S 746 mmHg 85%
    15:00 +12°C° 0.2 mm 9 m/S 745 mmHg 84%
    16:00 +9°C° 2.4 mm 8 m/S 745 mmHg 86%
    17:00 +6°C° 2.4 mm 8 m/S 746 mmHg 87%
    18:00 +4°C° 2.4 mm 8 m/S 747 mmHg 88%
    19:00 +4°C° 0.2 mm 7 m/S 748 mmHg 84%
    20:00 +4°C° 0.2 mm 7 m/S 749 mmHg 80%
    21:00 +4°C° 0.2 mm 7 m/S 750 mmHg 76%
    22:00 +4°C° 0 mm 6 m/S 750 mmHg 76%
    23:00 +3°C° 0 mm 6 m/S 751 mmHg 76%

    11 Dezember, Mittwoch

    Zeit Temperatur Niederschläge Wind Luftdruck Luftfeuchtigkeit
    00:00 +3°C° 0 mm 6 m/S 751 mmHg 76%
    01:00 +3°C° 0 mm 6 m/S 752 mmHg 76%
    02:00 +3°C° 0 mm 5 m/S 752 mmHg 77%
    03:00 +2°C° 0 mm 5 m/S 752 mmHg 77%
    04:00 +2°C° 0 mm 5 m/S 752 mmHg 79%
    05:00 +2°C° 0 mm 5 m/S 752 mmHg 81%
    06:00 +2°C° 0 mm 5 m/S 751 mmHg 82%
    07:00 +2°C° 0.1 mm 5 m/S 751 mmHg 82%
    08:00 +2°C° 0.1 mm 5 m/S 751 mmHg 82%
    09:00 +2°C° 0.1 mm 5 m/S 750 mmHg 81%
    10:00 +3°C° 0 mm 5 m/S 750 mmHg 79%
    11:00 +3°C° 0 mm 5 m/S 749 mmHg 77%
    12:00 +5°C° 0 mm 4 m/S 749 mmHg 74%
    13:00 +5°C° 0.1 mm 4 m/S 749 mmHg 75%
    14:00 +4°C° 0.1 mm 4 m/S 749 mmHg 75%
    15:00 +4°C° 0.1 mm 4 m/S 749 mmHg 75%
    16:00 +4°C° 0.1 mm 4 m/S 749 mmHg 76%
    17:00 +3°C° 0.1 mm 4 m/S 749 mmHg 76%
    18:00 +3°C° 0.1 mm 4 m/S 750 mmHg 77%
    19:00 +2°C° 0.1 mm 5 m/S 750 mmHg 77%
    20:00 +2°C° 0.1 mm 5 m/S 750 mmHg 77%
    21:00 +2°C° 0.1 mm 5 m/S 750 mmHg 78%
    22:00 +2°C° 0 mm 5 m/S 750 mmHg 78%
    23:00 +2°C° 0 mm 5 m/S 750 mmHg 79%

    12 Dezember, Donnerstag

    Zeit Temperatur Niederschläge Wind Luftdruck Luftfeuchtigkeit
    00:00 +2°C° 0 mm 5 m/S 750 mmHg 80%
    01:00 +2°C° 0 mm 5 m/S 749 mmHg 82%
    02:00 +2°C° 0 mm 5 m/S 749 mmHg 84%
    03:00 +2°C° 0 mm 5 m/S 748 mmHg 87%
    04:00 +3°C° 0.2 mm 5 m/S 747 mmHg 88%
    05:00 +5°C° 0.2 mm 5 m/S 746 mmHg 89%
    06:00 +5°C° 0.2 mm 5 m/S 745 mmHg 90%
    07:00 +6°C° 0.1 mm 5 m/S 744 mmHg 90%
    08:00 +6°C° 0.1 mm 5 m/S 743 mmHg 90%
    09:00 +7°C° 0.1 mm 5 m/S 743 mmHg 91%
    10:00 +7°C° 0.1 mm 5 m/S 741 mmHg 90%
    11:00 +7°C° 0.1 mm 5 m/S 740 mmHg 89%
    12:00 +8°C° 0.1 mm 5 m/S 739 mmHg 87%
    13:00 +7°C° 0.1 mm 4 m/S 739 mmHg 89%
    14:00 +8°C° 0.1 mm 3 m/S 738 mmHg 90%
    15:00 +8°C° 0.1 mm 2 m/S 738 mmHg 91%
    16:00 +8°C° 0 mm 3 m/S 738 mmHg 90%
    17:00 +7°C° 0 mm 4 m/S 738 mmHg 88%
    18:00 +7°C° 0 mm 5 m/S 739 mmHg 87%
    19:00 +7°C° 0 mm 5 m/S 738 mmHg 87%
    20:00 +7°C° 0 mm 5 m/S 738 mmHg 86%
    21:00 +7°C° 0 mm 5 m/S 738 mmHg 86%
    22:00 +7°C° 0.6 mm 6 m/S 738 mmHg 86%
    23:00 +7°C° 0.6 mm 6 m/S 737 mmHg 86%
    Mehr zeigen